| time (UTC) | temp F | wind direction | speed knots | gust knots | rain 1hr in | rain 24hr in | rain mn in | humidity % | barometer mb |
| 20260507234517 | 51 | 276 | 0.0 | 0.0 | 0.00 | 0.04 | 0.00 | 89 | 1016.3 |
| 20260507233047 | 51 | 276 | 0.0 | 0.0 | 0.00 | 0.04 | 0.00 | 89 | 1016.3 |
| 20260507231512 | 52 | 276 | 0.0 | 0.0 | 0.00 | 0.04 | 0.00 | 89 | 1016.3 |
| 20260507230015 | 52 | 276 | 0.0 | 0.0 | 0.00 | 0.05 | 0.00 | 89 | 1016.4 |
| 20260507224528 | 52 | 276 | 0.0 | 0.0 | 0.00 | 0.05 | 0.00 | 89 | 1016.3 |
| 20260507223051 | 52 | 277 | 0.0 | 0.0 | 0.00 | 0.05 | 0.00 | 88 | 1016.4 |
| 20260507221508 | 52 | 161 | 0.0 | 0.0 | 0.00 | 0.05 | 0.00 | 89 | 1016.4 |
| 20260507220012 | 53 | 240 | 0.0 | 0.0 | 0.00 | 0.10 | 0.05 | 88 | 1016.2 |
| 20260507214538 | 53 | 240 | 0.0 | 0.0 | 0.00 | 0.10 | 0.05 | 88 | 1016.0 |
| 20260507213046 | 54 | 240 | 0.0 | 0.0 | 0.00 | 0.10 | 0.05 | 87 | 1015.7 |
| 20260507211511 | 54 | 240 | 0.0 | 0.0 | 0.00 | 0.10 | 0.05 | 86 | 1015.8 |
| 20260507210031 | 54 | 240 | 0.0 | 0.0 | 0.00 | 0.15 | 0.05 | 85 | 1015.9 |
| 20260507204600 | 55 | 240 | 0.0 | 0.0 | 0.00 | 0.15 | 0.05 | 86 | 1015.8 |
| 20260507203016 | 55 | 240 | 0.0 | 0.0 | 0.00 | 0.15 | 0.05 | 85 | 1015.7 |
| 20260507201531 | 55 | 240 | 0.0 | 0.0 | 0.00 | 0.15 | 0.05 | 84 | 1015.3 |
| 20260507200029 | 55 | 240 | 0.0 | 0.0 | 0.00 | 0.15 | 0.05 | 84 | 1015.1 |
| 20260507194545 | 56 | 240 | 0.0 | 0.0 | 0.00 | 0.15 | 0.05 | 83 | 1014.9 |
| 20260507193009 | 57 | 240 | 0.0 | 0.0 | 0.00 | 0.15 | 0.05 | 82 | 1014.7 |
| 20260507191522 | 58 | 240 | 0.0 | 0.0 | 0.00 | 0.15 | 0.05 | 80 | 1014.6 |
| 20260507190005 | 59 | 240 | 0.0 | 0.0 | 0.00 | 0.15 | 0.05 | 79 | 1014.5 |
| 20260507184519 | 61 | 240 | 0.0 | 0.0 | 0.00 | 0.15 | 0.05 | 77 | 1014.2 |
| 20260507183047 | 62 | 240 | 0.0 | 0.0 | 0.00 | 0.15 | 0.05 | 75 | 1014.2 |
| 20260507181511 | 63 | 240 | 0.0 | 0.0 | 0.00 | 0.15 | 0.05 | 71 | 1014.0 |
| 20260507180027 | 66 | 240 | 0.0 | 0.0 | 0.00 | 0.39 | 0.05 | 68 | 1013.6 |
| 20260507174558 | 67 | 240 | 0.0 | 0.0 | 0.00 | 0.39 | 0.05 | 62 | 1013.5 |
| 20260507173020 | 68 | 240 | 0.0 | 0.0 | 0.00 | 0.39 | 0.05 | 55 | 1013.4 |
| 20260507171536 | 70 | 240 | 0.0 | 0.0 | 0.00 | 0.39 | 0.05 | 53 | 1013.4 |
| 20260507170034 | 69 | 240 | 0.0 | 0.0 | 0.00 | 0.39 | 0.05 | 52 | 1013.5 |
| 20260507164547 | 69 | 240 | 0.0 | 0.0 | 0.00 | 0.39 | 0.05 | 49 | 1013.3 |
| 20260507163010 | 71 | 232 | 0.0 | 0.9 | 0.00 | 0.39 | 0.05 | 47 | 1013.4 |
| 20260507161523 | 71 | 237 | 0.0 | 0.9 | 0.00 | 0.39 | 0.05 | 47 | 1013.4 |
| 20260507160021 | 71 | 239 | 0.0 | 0.0 | 0.00 | 0.39 | 0.05 | 49 | 1013.2 |
| 20260507154532 | 71 | 225 | 0.0 | 0.9 | 0.00 | 0.39 | 0.05 | 46 | 1013.2 |
| 20260507153102 | 71 | 237 | 0.0 | 2.6 | 0.00 | 0.39 | 0.05 | 49 | 1013.2 |
| 20260507151527 | 71 | 260 | 0.0 | 0.9 | 0.00 | 0.39 | 0.05 | 49 | 1013.3 |
| 20260507150029 | 70 | 239 | 0.0 | 6.1 | 0.00 | 0.39 | 0.05 | 49 | 1013.4 |
| 20260507144539 | 71 | 237 | 0.0 | 4.3 | 0.00 | 0.39 | 0.05 | 49 | 1013.5 |
| 20260507143003 | 70 | 215 | 0.0 | 5.2 | 0.00 | 0.39 | 0.05 | 51 | 1013.4 |
| 20260507141530 | 71 | 231 | 0.0 | 2.6 | 0.00 | 0.39 | 0.05 | 53 | 1013.5 |
| 20260507140026 | 70 | 161 | 0.0 | 5.2 | 0.00 | 0.39 | 0.05 | 55 | 1013.7 |
| 20260507134543 | 70 | 221 | 0.9 | 6.1 | 0.00 | 0.39 | 0.05 | 52 | 1014.0 |
| 20260507133004 | 70 | 265 | 0.0 | 3.5 | 0.00 | 0.39 | 0.05 | 52 | 1014.1 |
| 20260507131527 | 69 | 304 | 0.0 | 0.9 | 0.00 | 0.39 | 0.05 | 51 | 1014.3 |
| 20260507130003 | 68 | 244 | 0.0 | 0.9 | 0.00 | 0.56 | 0.05 | 56 | 1014.2 |
| 20260507124532 | 67 | 237 | 0.0 | 3.5 | 0.00 | 0.56 | 0.05 | 59 | 1014.3 |
| 20260507123042 | 69 | 231 | 0.0 | 3.5 | 0.00 | 0.56 | 0.05 | 60 | 1014.4 |
| 20260507121553 | 67 | 283 | 0.0 | 9.6 | 0.00 | 0.56 | 0.05 | 62 | 1014.4 |
| 20260507120054 | 68 | 285 | 0.0 | 0.9 | 0.00 | 0.56 | 0.05 | 65 | 1014.6 |
| 20260507114516 | 66 | 234 | 0.0 | 7.8 | 0.00 | 0.86 | 0.05 | 64 | 1014.8 |
| 20260507113046 | 66 | 310 | 0.9 | 8.7 | 0.00 | 0.86 | 0.05 | 65 | 1014.7 |
| 20260507111510 | 66 | 279 | 0.0 | 1.7 | 0.00 | 0.86 | 0.05 | 69 | 1014.8 |
| 20260507110010 | 65 | 230 | 0.0 | 10.4 | 0.00 | 1.02 | 0.05 | 69 | 1014.9 |
| 20260507104511 | 65 | 269 | 0.0 | 5.2 | 0.00 | 1.02 | 0.05 | 69 | 1015.2 |
| 20260507103040 | 64 | 206 | 0.0 | 9.6 | 0.00 | 1.02 | 0.05 | 69 | 1015.4 |
| 20260507101510 | 64 | 213 | 0.0 | 3.5 | 0.00 | 1.02 | 0.05 | 70 | 1015.4 |
| 20260507100031 | 64 | 240 | 0.9 | 4.3 | 0.00 | 1.02 | 0.05 | 68 | 1015.5 |
| 20260507094539 | 64 | 237 | 0.9 | 7.0 | 0.00 | 1.02 | 0.05 | 69 | 1015.6 |
| 20260507093003 | 64 | 221 | 0.0 | 0.9 | 0.00 | 1.02 | 0.05 | 73 | 1015.4 |
| 20260507091550 | 62 | 222 | 0.0 | 1.7 | 0.00 | 1.02 | 0.05 | 77 | 1015.4 |
| 20260507090035 | 61 | 257 | 0.0 | 5.2 | 0.00 | 1.02 | 0.05 | 76 | 1015.4 |
| 20260507084600 | 60 | 290 | 0.0 | 7.0 | 0.00 | 1.02 | 0.05 | 76 | 1015.4 |
| 20260507083107 | 60 | 256 | 0.0 | 0.0 | 0.00 | 1.02 | 0.05 | 77 | 1015.3 |
| 20260507081534 | 59 | 304 | 0.0 | 0.0 | 0.00 | 1.02 | 0.05 | 78 | 1015.2 |
| 20260507080017 | 58 | 285 | 0.0 | 0.0 | 0.00 | 1.02 | 0.05 | 81 | 1015.2 |
| 20260507074544 | 58 | 321 | 0.0 | 1.7 | 0.01 | 1.02 | 0.05 | 81 | 1015.3 |
| 20260507073009 | 56 | 304 | 0.0 | 0.9 | 0.01 | 1.02 | 0.05 | 82 | 1015.4 |
| 20260507071524 | 55 | 69 | 0.0 | 4.3 | 0.01 | 1.02 | 0.05 | 82 | 1015.4 |
| 20260507070010 | 55 | 63 | 0.9 | 8.7 | 0.01 | 1.02 | 0.05 | 82 | 1015.3 |
| 20260507064520 | 55 | 36 | 2.6 | 10.4 | 0.00 | 1.01 | 0.04 | 83 | 1015.1 |
| 20260507063046 | 54 | 85 | 0.0 | 2.6 | 0.00 | 1.01 | 0.04 | 83 | 1015.1 |
| 20260507061525 | 55 | 61 | 0.9 | 7.0 | 0.00 | 1.01 | 0.04 | 83 | 1015.0 |
| 20260507060003 | 54 | 98 | 0.0 | 3.5 | 0.00 | 1.02 | 0.04 | 84 | 1014.9 |
| 20260507054529 | 53 | 32 | 0.0 | 4.3 | 0.00 | 1.02 | 0.04 | 86 | 1014.7 |
| 20260507053059 | 52 | 298 | 0.0 | 0.9 | 0.00 | 1.02 | 0.04 | 87 | 1014.7 |
| 20260507051504 | 52 | 42 | 0.9 | 6.1 | 0.00 | 1.02 | 0.04 | 86 | 1014.6 |
| 20260507050029 | 52 | 296 | 0.0 | 1.7 | 0.00 | 1.30 | 0.04 | 86 | 1014.5 |
| 20260507044541 | 52 | 79 | 0.0 | 1.7 | 0.00 | 1.30 | 0.04 | 85 | 1014.3 |
| 20260507043041 | 52 | 71 | 0.0 | 2.6 | 0.00 | 1.30 | 0.04 | 86 | 1014.1 |
| 20260507041605 | 52 | 331 | 0.0 | 0.9 | 0.00 | 1.30 | 0.04 | 86 | 1014.2 |
| 20260507040103 | 52 | 8 | 0.0 | 4.3 | 0.00 | 1.30 | 0.04 | 85 | 1013.9 |
| 20260507034526 | 52 | 3 | 0.0 | 5.2 | 0.00 | 1.31 | 0.04 | 85 | 1014.0 |
| 20260507033039 | 53 | 29 | 0.0 | 6.1 | 0.00 | 1.31 | 0.04 | 85 | 1013.9 |
| 20260507031554 | 53 | 62 | 0.0 | 8.7 | 0.00 | 1.31 | 0.04 | 86 | 1013.7 |
| 20260507030105 | 52 | 73 | 0.0 | 4.3 | 0.00 | 1.31 | 0.04 | 87 | 1013.8 |
| 20260507024520 | 52 | 42 | 0.0 | 0.0 | 0.00 | 1.33 | 0.04 | 87 | 1013.9 |
| 20260507023050 | 53 | 40 | 0.0 | 2.6 | 0.00 | 1.33 | 0.04 | 86 | 1013.8 |
| 20260507021515 | 53 | 17 | 0.0 | 0.0 | 0.00 | 1.33 | 0.04 | 86 | 1013.9 |
| 20260507020107 | 53 | 296 | 0.0 | 0.9 | 0.00 | 1.33 | 0.04 | 86 | 1014.0 |
| 20260507014510 | 53 | 55 | 0.0 | 4.3 | 0.00 | 1.41 | 0.04 | 87 | 1013.7 |
| 20260507013022 | 53 | 13 | 0.0 | 0.0 | 0.00 | 1.41 | 0.04 | 88 | 1013.7 |
| 20260507011535 | 53 | 61 | 0.0 | 1.7 | 0.00 | 1.41 | 0.04 | 87 | 1013.6 |
| 20260507010033 | 53 | 84 | 0.0 | 1.7 | 0.01 | 1.43 | 0.04 | 88 | 1013.6 |
| 20260507004548 | 53 | 57 | 0.0 | 1.7 | 0.02 | 1.43 | 0.04 | 87 | 1013.6 |
| 20260507003006 | 53 | 88 | 0.0 | 8.7 | 0.02 | 1.43 | 0.04 | 87 | 1013.5 |
| 20260507001535 | 53 | 68 | 0.0 | 8.7 | 0.02 | 1.43 | 0.04 | 87 | 1013.5 |
| 20260507000033 | 53 | 52 | 3.5 | 13.9 | 0.02 | 1.43 | 0.03 | 86 | 1013.4 |